Regional Weather Roundup
Issued by NWS Albany, NY

Home | Current Version | Previous Version | Text Only | Print | Product List | Glossary Off
Versions: 1 2 3 4 5 6 7 8 9 10 11 12 13 14 15 16 17 18 19 20 21 22 23 24 25 26 27

000
ASUS41 KALY 310710
RWRALY

NEW YORK STATE HOURLY WEATHER ROUNDUP
NATIONAL WEATHER SERVICE ALBANY NY
300 AM EDT TUE MAY 31 2016

NOTE: "FAIR" INDICATES FEW OR NO CLOUDS BELOW 12,000 FEET WITH NO
SIGNIFICANT WEATHER AND/OR NO OBSTRUCTIONS TO VISIBILITY.

NYZ032-033-038>043-046>054-057>066-NYZ062>081-082-084-310800-
EAST


CITY           SKY/WX    TMP DP  RH WIND       PRES   REMARKS
ALBANY         CLOUDY    66  60  81 W7        29.93R
GLENS FALLS    PTCLDY    65  58  78 SW7       29.90R
POUGHKEEPSIE   CLOUDY    70  63  78 CALM      29.92R
NEWBURGH       PTCLDY    66  64  94 W8        29.94S
MONTGOMERY     CLOUDY    64  62  93 S6        29.93S
WHITE PLAINS   PTCLDY    70  67  90 W6        29.93S
NEW YORK CITY  CLOUDY    74  67  79 SW7       29.92S
CENTRAL PARK   CLOUDY    72  66  81 MISG      29.96S
$$

NYZ005>009-017-018-044>046-055-056-310800-
CENTRAL


CITY           SKY/WX    TMP DP  RH WIND       PRES   REMARKS
FULTON         MOCLDY    60  53  77 CALM      29.96R
SYRACUSE       PTCLDY    62  52  69 CALM      29.95R
ROME           CLEAR     57  55  93 CALM      29.96R
ELMIRA         CLEAR     55  52  89 SW3       29.98F
BINGHAMTON     CLEAR     61  50  67 N7        29.99S
MONTICELLO     PTCLDY    61  59  94 W3        29.99S
$$

NYZ026>034-041>043-087-310800-
NORTH


CITY           SKY/WX    TMP DP  RH WIND       PRES   REMARKS
WATERTOWN      CLEAR     59  52  77 SW6       29.93S
FORT DRUM      NOT AVBL
MASSENA        CLEAR     59  51  75 SW10      29.88R
SARANAC LAKE   CLEAR     57  48  72 SW7       29.92S
PLATTSBURGH    CLEAR     67  54  63 W3        29.86S
$$

NYZ001>004-010>016-019>021-085-310800-
WEST


CITY           SKY/WX    TMP DP  RH WIND       PRES   REMARKS
NIAGARA FALLS  CLEAR     60  56  86 CALM      29.96S
BUFFALO        PTCLDY    63  55  75 S3        29.96F
DUNKIRK        PTCLDY    57  54  89 SW3       29.97S
JAMESTOWN      CLEAR     57  54  88 S3        30.01S
WELLSVILLE     CLEAR     57  52  83 CALM      30.04S
ROCHESTER      CLEAR     59  57  93 SW5       29.96F
PENN YAN       CLEAR     61  56  83 SW7       29.99S
$$

             KEY
       WCI = WIND CHILL INDEX
       VSB = VISIBILITY
       HX  = HEAT INDEX
$$




USA.gov is the U.S. government's official web portal to all federal, state and local government web resources and services.